OBJECT B, 60746

Orbit data source: Space-Track

You're viewing an uncataloged RSO

Recently launched and/or uncataloged RSOs may have evolving metadata. Metadata may include the following, but is not limited to: Owner, Manufacturer, Bus, Motor, and Mission.

OBJECT B, 60746 is a Chinese satellite in SSO that was launched on Thu, 29 Aug 2024 UTC via a GUSHENXING 1 launch vehicle from the Yellow Sea Launch Area, China (YSLA). Unknown objects in Earth's orbit typically refer to objects detected orbiting the Earth but have not yet been identified or cataloged. These objects could be anything from previously untracked satellites, spent rocket stages, debris from satellite collisions, or even natural meteoroids temporarily captured by Earth's gravity.

Loading next visibility...
Identifier
60746, 2024-153B
Orbit
SSO
Country
Flag of CNCN / PRC
Related business
None
Manufacturer
Unknown
Mission
Operational Commercial Meteo Radio Occ.
Bus & Motor
Unknown
Mass
Unknown
Launch date (UTC)
2024-08-29 (2 years ago)
Launch vehicle
GUSHENXING 1
Launch site
Yellow Sea Launch Area, China (YSLA)
Object type
Unknown
Shape & HBR
Box + 1 Pan, 2.5 m
Radar Cross Section
5.339 m², Medium (>0.1 m² and < 1m²)

Expand to show TLE details & history
Last TLE update: 4 hours ago

TLE from 4 hours ago
0 OBJECT B
1 60746U 24153B   26256.22404046  .00011636  00000-0  34144-3 0  9997
2 60746  97.6901  39.2682 0009106 202.0840 158.0011 15.35295552113451
Epoch: 2026-09-13T05:22Z
TLE epoch observation values (Epoch: 2026-09-13T05:22:37.095Z)
Latitude
-0.00009°
Longitude
-33.60811°
Altitude
468.921 km
Speed
7.629 km/s
True Right ascension
02h 37m 04s
True Declination
0° 00' 00"
Sunlit
Object was in full shadow at epoch
Visualization orbit readout
Latitude
Unknown
Longitude
Unknown
Altitude
Unknown
Speed
Unknown
Apparent Right ascension
Unknown
Apparent Declination
Unknown
Sunlit
N/A
Visualization observer readout
Local Sidereal Time
01:27:53
Azimuth
Unknown
Elevation
Unknown
Doppler factor
Unknown
Orbital elements
Apogee altitude
463.225 km
Perigee altitude
450.777 km
Semi-major axis
6,835.138 km
Eccentricity
0.00091
Inclination
97.6901°
RAAN
39.2682°
Arg. of periapsis
202.084°
True anomaly
158.04015°
Mean anomaly
158.0011°
Eccentric anomaly
158.02063°
Mean motion
3.84081 °/min
Orbital period
93.73 mins
BSTAR
0.00034144
Loading maneuver chart data...
Computing Atmospheric mass density...
Loading historical data...
Loading historical data...
Loading historical data...
Loading historical data...
Loading historical data...
Loading historical data...
Loading historical data...

Documentation

Showing up to 5 results
|